Location: Arbon
(43.0005°N, 0.7472°E)
Time: 10:09:08
(UTC+00:00)

Vanguard 2 Rocket - Pass Details

Date: 26 November 2020
Orbit: 554 x 3325 km, 32.9° (Epoch: 21 January)

Event Time Altitude Azimuth Distance (km) Brightness Sun altitude
Rises 09:16:33 0° 243° (WSW) 7,296 11.4 17.5°
Reaches altitude 10° 09:21:40 10° 240° (WSW) 6,273 11.2 18.0°
Maximum altitude 09:40:28 54° 170° (S) 3,192 10.7 19.9°
Drops below altitude 10° 09:53:16 10° 98° (E) 4,439 11.0 21.0°
Sets 09:56:12 0° 94° (E) 5,120 11.2 21.3°
